DW0793 Weather Reports


time (UTC)temp
C
wind
direction
speed
KPH
gust
KPH
rain 1hr
cm
rain 24hr
cm
rain mn
cm
humidity
%
barometer
mb
20260510015804 10 30 0.0 0.0 0.00 0.64 0.64 98 1010.2
20260510014803 10 30 0.0 0.0 0.00 0.64 0.64 97 1010.0
20260510013804 11 30 0.0 0.0 0.00 0.64 0.64 97 1009.9
20260510012806 11 30 0.0 0.0 0.00 0.64 0.64 97 1009.8
20260510012307 11 30 0.0 0.0 0.00 0.64 0.64 96 1009.9
20260510011806 11 30 0.0 0.0 0.00 0.64 0.64 96 1009.9
20260510011306 11 30 0.0 0.0 0.00 0.64 0.64 96 1009.9
20260510010812 11 30 0.0 0.0 0.00 0.64 0.64 95 1009.8
20260510010304 11 30 0.0 0.0 0.00 0.64 0.64 95 1009.8
20260510005803 11 30 0.0 0.0 0.00 0.64 0.64 95 1009.7
20260510005306 11 30 0.0 0.0 0.00 0.64 0.64 95 1009.6
20260510004305 12 30 0.0 0.0 0.00 0.64 0.64 94 1009.6
20260510003803 12 30 0.0 0.0 0.00 0.64 0.64 94 1009.4
20260510003304 12 30 0.0 0.0 0.00 0.64 0.64 93 1009.3
20260510002804 12 30 0.0 0.0 0.00 0.64 0.64 93 1009.3
20260510002306 12 30 0.0 0.0 0.00 0.64 0.64 93 1009.3
20260510001803 13 30 0.0 0.0 0.00 0.64 0.64 92 1009.1
20260510001303 13 30 0.0 0.0 0.00 0.64 0.64 91 1009.1
20260510000803 13 30 0.0 0.0 0.00 0.64 0.64 91 1009.1
20260510000304 13 30 0.0 0.0 0.00 0.64 0.64 91 1009.0
20260509235804 13 30 0.0 0.0 0.00 0.64 0.64 90 1009.0
20260509235306 13 30 0.0 0.0 0.00 0.64 0.64 89 1009.0
20260509234805 14 30 0.0 0.0 0.00 0.64 0.64 88 1009.0
20260509234304 14 30 0.0 0.0 0.00 0.64 0.64 87 1008.9
20260509233804 15 30 0.0 0.0 0.00 0.64 0.64 87 1008.8
20260509233304 15 30 0.0 0.0 0.00 0.64 0.64 85 1008.9
20260509232803 15 30 0.0 0.0 0.00 0.64 0.64 85 1008.9
20260509232306 15 30 0.0 0.0 0.00 0.64 0.64 84 1008.8
20260509231803 15 30 0.0 0.0 0.00 0.64 0.64 84 1008.7
20260509230804 15 33 0.0 0.0 0.00 0.64 0.64 83 1008.6
20260509230304 15 32 0.0 0.0 0.00 0.64 0.64 83 1008.6
20260509225803 15 31 0.0 0.0 0.00 0.64 0.64 84 1008.6
20260509225305 15 195 0.0 0.0 0.00 0.64 0.64 85 1008.6
20260509224804 15 195 0.0 0.0 0.00 0.64 0.64 85 1008.6
20260509223803 15 195 0.0 0.0 0.00 0.64 0.64 86 1008.8
20260509223303 15 215 0.0 3.2 0.00 0.64 0.64 86 1008.8
20260509222804 15 230 0.0 0.0 0.00 0.64 0.64 86 1008.8
20260509221803 15 230 0.0 4.8 0.00 0.64 0.64 87 1008.7
20260509221305 15 229 0.0 4.8 0.00 0.64 0.64 86 1008.8
20260509220303 15 229 0.0 1.6 0.00 0.64 0.64 88 1008.8
20260509215803 15 229 0.0 0.0 0.00 0.64 0.64 89 1008.8
20260509215306 15 229 0.0 0.0 0.00 0.64 0.64 90 1008.9
20260509214805 15 225 1.6 8.0 0.00 0.64 0.64 90 1008.9
20260509214303 14 213 0.0 0.0 0.00 0.64 0.64 89 1008.9
20260509213803 14 212 0.0 0.0 0.00 0.64 0.64 90 1008.9
20260509212306 14 205 1.6 9.7 0.00 0.64 0.64 91 1009.1
20260509211803 13 222 1.6 11.3 0.00 0.64 0.64 92 1009.2
20260509211303 13 216 0.0 9.7 0.00 0.64 0.64 93 1009.2
20260509210803 13 215 0.0 0.0 0.00 0.64 0.64 93 1009.2
20260509205804 13 215 0.0 0.0 0.00 0.64 0.64 93 1009.3
20260509205306 13 215 0.0 0.0 0.00 0.64 0.64 93 1009.3
20260509204804 13 215 0.0 0.0 0.00 0.64 0.64 93 1009.4
20260509204303 13 215 0.0 0.0 0.00 0.64 0.64 93 1009.4
20260509203803 13 215 0.0 0.0 0.00 0.64 0.64 93 1009.2
20260509203304 13 215 0.0 11.3 0.00 0.64 0.64 92 1009.2
20260509202804 13 203 0.0 0.0 0.00 0.64 0.64 93 1009.4
20260509202306 13 203 0.0 0.0 0.00 0.64 0.64 93 1009.5
20260509201804 13 203 0.0 0.0 0.00 0.64 0.64 93 1009.7
20260509201303 13 203 0.0 0.0 0.00 0.64 0.64 93 1009.6
20260509200303 13 232 0.0 4.8 0.00 0.64 0.64 93 1009.7
20260509195803 13 233 1.6 8.0 0.00 0.64 0.64 93 1009.7
20260509195306 13 222 1.6 12.9 0.00 0.64 0.64 94 1009.8
20260509194803 13 224 0.0 0.0 0.00 0.64 0.64 95 1009.8
20260509194303 13 224 3.2 8.0 0.00 0.64 0.64 95 1010.0
20260509193804 13 225 0.0 4.8 0.00 0.64 0.64 96 1010.0
20260509193304 13 217 0.0 0.0 0.03 0.64 0.64 95 1010.2
20260509192803 13 217 0.0 3.2 0.03 0.64 0.64 95 1010.2
20260509192306 13 216 0.0 3.2 0.03 0.64 0.64 96 1010.2
20260509191823 13 212 0.0 4.8 0.03 0.64 0.64 97 1010.1
20260509191305 13 212 1.6 4.8 0.03 0.64 0.64 97 1010.0
20260509190304 13 212 0.0 8.0 0.03 0.64 0.64 98 1010.0
20260509185821 13 212 0.0 3.2 0.05 0.64 0.64 99 1010.1
20260509185306 13 212 0.0 0.0 0.05 0.64 0.64 99 1010.2
20260509184804 13 212 0.0 0.0 0.05 0.64 0.64 99 1010.3
20260509184304 12 212 0.0 0.0 0.05 0.64 0.64 98 1010.5
20260509183804 12 212 0.0 3.2 0.05 0.64 0.64 98 1010.5
20260509183304 12 212 0.0 0.0 0.05 0.61 0.61 98 1010.5
20260509182803 12 212 1.6 3.2 0.05 0.61 0.61 98 1011.0
20260509181803 12 212 0.0 0.0 0.05 0.61 0.61 98 1010.9
20260509175804 12 212 0.0 0.0 0.08 0.58 0.58 98 1010.8
20260509175306 12 212 0.0 3.2 0.10 0.58 0.58 98 1010.9
20260509174804 12 212 0.0 0.0 0.13 0.58 0.58 98 1011.0
20260509174304 12 212 0.0 0.0 0.15 0.58 0.58 97 1010.9
20260509173803 12 212 0.0 0.0 0.15 0.58 0.58 97 1010.8
20260509173303 12 212 0.0 0.0 0.15 0.56 0.56 97 1010.9
20260509172803 12 212 0.0 0.0 0.18 0.56 0.56 97 1010.9
20260509172306 12 212 0.0 0.0 0.20 0.56 0.56 97 1010.7
20260509171804 12 212 0.0 0.0 0.25 0.56 0.56 97 1010.7
20260509171303 12 212 0.0 0.0 0.28 0.53 0.53 97 1010.8
20260509170803 12 212 0.0 0.0 0.33 0.53 0.53 97 1010.7
20260509170303 12 212 0.0 0.0 0.33 0.51 0.51 97 1010.8
20260509165803 12 212 0.0 0.0 0.36 0.51 0.51 97 1010.9
20260509165306 12 212 0.0 0.0 0.36 0.48 0.48 97 1010.8
20260509164303 12 212 0.0 0.0 0.33 0.43 0.43 97 1010.9
20260509163803 12 212 0.0 0.0 0.33 0.43 0.43 96 1011.0
20260509163303 12 212 0.0 4.8 0.30 0.41 0.41 96 1010.9
20260509162805 12 212 0.0 4.8 0.30 0.38 0.38 96 1011.3
20260509162307 12 212 0.0 0.0 0.28 0.36 0.36 96 1011.4
20260509161804 12 212 0.0 0.0 0.25 0.30 0.30 95 1011.4
20260509161303 12 212 0.0 0.0 0.20 0.25 0.25 95 1011.6
20260509160804 12 212 0.0 3.2 0.15 0.20 0.20 95 1011.5
20260509160304 12 212 0.0 0.0 0.15 0.18 0.18 94 1011.5
20260509155306 12 211 0.0 3.2 0.10 0.13 0.13 94 1011.7
20260509154803 12 211 0.0 9.7 0.10 0.13 0.13 93 1011.6
20260509153804 12 208 0.0 0.0 0.08 0.10 0.10 93 1011.6
20260509153304 12 208 3.2 9.7 0.08 0.10 0.10 93 1011.5
20260509151304 12 130 0.0 0.0 0.03 0.05 0.05 94 1011.7
20260509150804 12 130 0.0 0.0 0.03 0.05 0.05 94 1011.6
20260509150304 12 130 0.0 0.0 0.00 0.03 0.03 94 1011.5
20260509145804 12 130 0.0 0.0 0.00 0.03 0.03 94 1011.5
20260509144804 12 130 0.0 0.0 0.00 0.03 0.03 94 1011.6
20260509144303 12 130 0.0 0.0 0.00 0.03 0.03 94 1011.5
20260509143303 12 130 0.0 0.0 0.00 0.03 0.03 95 1011.4
20260509142803 11 130 0.0 0.0 0.00 0.03 0.03 94 1011.2
20260509142307 11 130 0.0 0.0 0.00 0.03 0.03 94 1011.2
20260509141304 11 130 0.0 0.0 0.00 0.03 0.03 94 1011.1
20260509140304 11 130 0.0 0.0 0.00 0.03 0.03 94 1011.2
20260509135804 11 130 0.0 0.0 0.00 0.03 0.03 94 1011.0
20260509135306 11 130 0.0 0.0 0.00 0.03 0.03 94 1011.0
20260509134803 11 130 0.0 0.0 0.00 0.03 0.03 94 1011.0
20260509134303 11 130 0.0 0.0 0.00 0.03 0.03 94 1011.1
20260509133804 11 130 0.0 0.0 0.03 0.03 0.03 94 1011.2
20260509133303 11 130 0.0 0.0 0.03 0.03 0.03 94 1011.3
20260509132803 11 130 0.0 0.0 0.03 0.03 0.03 95 1011.1
20260509132306 11 130 0.0 0.0 0.03 0.03 0.03 95 1011.2
20260509131803 11 130 0.0 0.0 0.03 0.03 0.03 94 1011.3
20260509131303 11 130 0.0 0.0 0.03 0.03 0.03 94 1011.1
20260509130803 11 130 0.0 0.0 0.03 0.03 0.03 94 1011.3
20260509130304 10 130 0.0 0.0 0.03 0.03 0.03 93 1011.2
20260509125307 10 130 0.0 0.0 0.03 0.03 0.03 93 1010.9
20260509124804 10 135 0.0 0.0 0.03 0.03 0.03 93 1010.6
20260509124304 10 135 0.0 0.0 0.03 0.03 0.03 93 1010.7
20260509123804 10 135 0.0 0.0 0.00 0.00 0.00 93 1010.7
20260509123303 10 135 0.0 3.2 0.00 0.00 0.00 93 1010.6
20260509122803 10 135 4.8 8.0 0.00 0.00 0.00 93 1010.6
20260509122306 10 171 0.0 4.8 0.00 0.00 0.00 92 1010.8
20260509121803 10 172 0.0 0.0 0.00 0.00 0.00 92 1010.9
20260509120804 10 175 0.0 0.0 0.00 0.00 0.00 92 1010.9
20260509120304 10 175 1.6 4.8 0.00 0.00 0.00 93 1010.9
20260509115804 10 175 0.0 0.0 0.00 0.00 0.00 93 1011.0
20260509115306 10 175 0.0 0.0 0.00 0.00 0.00 93 1011.1
20260509114804 10 175 0.0 0.0 0.00 0.00 0.00 93 1011.2
20260509114303 10 177 0.0 0.0 0.00 0.00 0.00 94 1011.2
20260509113804 10 177 0.0 0.0 0.00 0.00 0.00 94 1010.9
20260509113304 10 177 0.0 0.0 0.00 0.00 0.00 94 1010.9
20260509111804 10 177 0.0 0.0 0.00 0.00 0.00 95 1010.8
20260509111303 10 178 0.0 0.0 0.00 0.00 0.00 95 1011.0
20260509110803 10 178 0.0 0.0 0.00 0.00 0.00 95 1011.0
20260509110304 10 178 0.0 0.0 0.00 0.00 0.00 95 1010.9
20260509105804 10 178 0.0 0.0 0.00 0.00 0.00 95 1011.0
20260509105306 9 178 0.0 0.0 0.00 0.00 0.00 95 1010.6
20260509104804 9 178 0.0 0.0 0.00 0.00 0.00 95 1010.4
20260509104305 9 178 0.0 0.0 0.00 0.00 0.00 95 1010.2
20260509103804 9 208 0.0 0.0 0.00 0.00 0.00 95 1010.3
20260509103303 9 209 0.0 0.0 0.00 0.00 0.00 95 1010.4
20260509102803 9 209 0.0 0.0 0.00 0.00 0.00 95 1010.6
20260509102305 9 209 0.0 0.0 0.00 0.00 0.00 95 1010.6
20260509101304 9 209 0.0 0.0 0.00 0.00 0.00 95 1010.6
20260509100805 9 209 0.0 0.0 0.00 0.00 0.00 96 1010.6
20260509100305 9 209 0.0 0.0 0.00 0.00 0.00 96 1010.4
20260509095803 9 209 0.0 0.0 0.00 0.00 0.00 95 1010.4
20260509095306 9 209 0.0 0.0 0.00 0.00 0.00 95 1010.6
20260509094803 9 209 0.0 0.0 0.00 0.00 0.00 95 1010.3
20260509094304 9 209 0.0 0.0 0.00 0.00 0.00 95 1010.3
20260509093804 9 209 0.0 0.0 0.00 0.00 0.00 95 1010.3
20260509092803 9 209 0.0 0.0 0.00 0.00 0.00 95 1010.6
20260509092305 9 209 0.0 0.0 0.00 0.00 0.00 95 1010.8
20260509091304 9 209 0.0 0.0 0.00 0.00 0.00 96 1010.8
20260509090803 9 209 0.0 0.0 0.00 0.00 0.00 96 1010.9
20260509085803 9 209 0.0 0.0 0.00 0.00 0.00 96 1011.0
20260509084804 8 209 0.0 0.0 0.00 0.00 0.00 96 1011.1
20260509084304 8 210 0.0 0.0 0.00 0.00 0.00 96 1011.2
20260509083803 8 210 0.0 0.0 0.00 0.00 0.00 96 1011.2
20260509083303 8 210 0.0 0.0 0.00 0.00 0.00 96 1011.3
20260509082804 8 210 0.0 0.0 0.00 0.00 0.00 96 1011.2
20260509082306 8 210 0.0 0.0 0.00 0.00 0.00 96 1011.3
20260509081803 8 210 0.0 0.0 0.00 0.00 0.00 96 1011.3
20260509081304 8 210 0.0 0.0 0.00 0.00 0.00 95 1011.2
20260509080803 8 210 0.0 0.0 0.00 0.00 0.00 95 1011.2
20260509080304 8 210 0.0 0.0 0.00 0.00 0.00 95 1011.3
20260509075803 8 210 0.0 0.0 0.00 0.00 0.00 94 1011.4
20260509074803 8 210 0.0 0.0 0.00 0.00 0.00 94 1011.5
20260509074304 8 210 0.0 0.0 0.00 0.00 0.00 94 1011.6
20260509073803 8 210 0.0 0.0 0.00 0.00 0.00 93 1011.5
20260509073304 8 210 0.0 0.0 0.00 0.00 0.00 93 1011.5
20260509072805 8 210 0.0 0.0 0.00 0.00 0.00 93 1011.7
20260509072306 8 210 0.0 0.0 0.00 0.00 0.00 92 1011.7
20260509071803 9 210 0.0 0.0 0.00 0.00 0.00 92 1011.6
20260509071304 9 210 0.0 0.0 0.00 0.00 0.00 92 1011.5
20260509070804 9 210 0.0 0.0 0.00 0.00 0.00 92 1011.4
20260509065804 10 210 0.0 0.0 0.00 0.00 0.00 92 1011.4
20260509065306 10 210 0.0 0.0 0.00 0.00 0.00 92 1011.4
20260509064803 10 210 0.0 0.0 0.00 0.00 0.00 92 1011.4
20260509064303 10 210 0.0 0.0 0.00 0.00 0.00 91 1011.5
20260509063804 10 210 0.0 0.0 0.00 0.00 0.00 92 1011.5
20260509062804 10 210 0.0 0.0 0.00 0.00 0.00 91 1011.6
20260509062306 10 210 0.0 0.0 0.00 0.00 0.00 91 1011.7
20260509061803 11 210 0.0 0.0 0.00 0.00 0.00 91 1011.8
20260509061303 11 210 0.0 0.0 0.00 0.00 0.00 91 1012.0
20260509060803 11 210 0.0 0.0 0.00 0.00 0.00 91 1011.9
20260509060303 11 210 0.0 0.0 0.00 0.00 0.00 91 1012.0
20260509055306 11 210 0.0 0.0 0.00 0.00 0.00 91 1012.1
20260509054803 11 210 0.0 0.0 0.00 0.00 0.00 90 1012.1
20260509054303 11 210 0.0 0.0 0.00 0.00 0.00 90 1012.0
20260509053803 11 210 0.0 0.0 0.00 0.00 0.00 89 1011.9
20260509053305 11 210 0.0 0.0 0.00 0.00 0.00 90 1011.8
20260509052804 11 210 0.0 0.0 0.00 0.00 0.00 90 1011.8
20260509052307 11 210 0.0 0.0 0.00 0.00 0.00 89 1011.9
20260509051804 11 210 0.0 0.0 0.00 0.00 0.00 90 1012.0
20260509051304 11 210 0.0 0.0 0.00 0.00 0.00 89 1011.8
20260509050804 11 210 0.0 0.0 0.00 0.00 0.00 89 1011.7
20260509045306 11 210 0.0 0.0 0.00 0.00 0.00 87 1011.9
20260509044803 11 210 0.0 0.0 0.00 0.00 0.00 87 1011.9
20260509044304 11 210 0.0 0.0 0.00 0.00 0.00 86 1012.0
20260509043803 12 210 0.0 0.0 0.00 0.03 0.00 85 1012.2
20260509043303 12 209 0.0 0.0 0.00 0.05 0.00 84 1012.5
20260509042803 12 209 0.0 0.0 0.00 0.05 0.00 83 1012.7
20260509042306 12 209 0.0 0.0 0.00 0.05 0.00 82 1012.6
20260509041804 12 209 0.0 0.0 0.00 0.05 0.00 81 1012.3
20260509041304 12 209 0.0 3.2 0.00 0.05 0.00 81 1012.2
20260509040814 12 209 0.0 0.0 0.00 0.05 0.00 82 1012.2
20260509040303 11 209 0.0 4.8 0.00 0.05 0.00 82 1012.3
20260509035804 11 246 0.0 9.7 0.00 0.05 0.05 82 1012.4
20260509035306 11 188 1.6 8.0 0.00 0.05 0.05 83 1012.6
20260509034803 11 217 0.0 8.0 0.00 0.05 0.05 84 1012.5
20260509034303 11 217 0.0 8.0 0.00 0.05 0.05 85 1012.7
20260509033805 11 263 0.0 3.2 0.00 0.05 0.05 86 1012.7
20260509033304 11 263 0.0 0.0 0.00 0.05 0.05 86 1012.6
20260509032804 11 263 0.0 0.0 0.00 0.05 0.05 86 1012.3
20260509031803 11 263 0.0 0.0 0.00 0.05 0.05 86 1012.1
20260509031304 11 263 0.0 0.0 0.00 0.05 0.05 86 1012.3
20260509030804 11 263 0.0 0.0 0.00 0.05 0.05 86 1012.2
20260509030304 11 263 0.0 0.0 0.00 0.05 0.05 86 1012.2
20260509025306 11 263 0.0 0.0 0.00 0.05 0.05 85 1012.1
20260509024803 11 263 0.0 0.0 0.00 0.05 0.05 85 1012.3
20260509024304 11 263 0.0 0.0 0.00 0.05 0.05 85 1012.3
20260509023804 11 263 0.0 0.0 0.00 0.05 0.05 84 1012.2
20260509023303 11 263 0.0 0.0 0.00 0.05 0.05 84 1012.2
20260509022804 11 263 0.0 0.0 0.00 0.05 0.05 84 1012.3
20260509021804 11 263 0.0 0.0 0.00 0.05 0.05 84 1012.3
20260509021303 11 263 0.0 0.0 0.00 0.05 0.05 84 1012.3